W5ITZ Weather Reports


time (UTC)temp
C
wind
direction
speed
KPH
gust
KPH
rain 1hr
cm
rain 24hr
cm
rain mn
cm
humidity
%
barometer
mb
20260502130416 13 27 3.2 4.8 0.00 0.00 0.00 89 1019.8
20260502123359 12 324 3.2 4.8 0.00 0.00 0.00 92 1019.4
20260502122856 12 354 3.2 3.2 0.00 0.00 0.00 92 1019.3
20260502122352 12 311 6.4 8.0 0.00 0.00 0.00 92 1019.2
20260502121850 12 0 6.4 9.7 0.00 0.00 0.00 92 1019.2
20260502121347 12 301 4.8 4.8 0.00 0.00 0.00 92 1018.9
20260502120845 12 26 1.6 1.6 0.00 0.00 0.00 93 1018.9
20260502120341 12 2 1.6 1.6 0.00 0.00 0.00 92 1018.9
20260502115838 12 313 1.6 3.2 0.00 0.00 0.00 92 1018.9
20260502115335 12 318 4.8 4.8 0.00 0.00 0.00 92 1018.7
20260502114832 12 340 6.4 8.0 0.00 0.00 0.00 92 1018.6
20260502114329 12 316 4.8 4.8 0.00 0.00 0.00 92 1018.5
20260502113826 12 330 4.8 3.2 0.00 0.00 0.00 92 1018.7
20260502113323 12 12 4.8 9.7 0.00 0.00 0.00 91 1018.2
20260502112822 12 337 1.6 3.2 0.00 0.00 0.00 91 1018.2
20260502112318 13 15 3.2 4.8 0.00 0.00 0.00 91 1018.5
20260502111816 13 346 3.2 3.2 0.00 0.00 0.00 91 1018.2
20260502111313 13 306 0.0 0.0 0.00 0.00 0.00 91 1018.0
20260502110811 13 343 3.2 4.8 0.00 0.00 0.00 91 1018.0
20260502110309 13 305 1.6 1.6 0.00 0.00 0.00 91 1018.1
20260502105806 13 53 4.8 9.7 0.00 0.00 0.00 91 1017.8
20260502105305 13 53 6.4 8.0 0.00 0.00 0.00 91 1017.8
20260502104800 13 343 6.4 8.0 0.00 0.00 0.00 92 1017.7
20260502104257 13 78 8.0 9.7 0.00 0.00 0.00 92 1017.6
20260502103754 13 318 4.8 4.8 0.00 0.00 0.00 92 1017.6
20260502103252 13 308 3.2 3.2 0.00 0.00 0.00 93 1017.2
20260502102749 13 308 1.6 1.6 0.00 0.00 0.00 93 1017.5
20260502102245 13 330 4.8 4.8 0.00 0.00 0.00 93 1017.2
20260502101744 13 325 3.2 3.2 0.00 0.00 0.00 93 1017.2
20260502101241 13 320 1.6 1.6 0.00 0.00 0.00 93 1017.2
20260502100739 13 3 1.6 3.2 0.00 0.00 0.00 93 1017.3
20260502100238 13 323 1.6 1.6 0.00 0.00 0.00 92 1017.2
20260502091212 13 334 4.8 4.8 0.00 0.00 0.00 91 1016.8
20260502090709 13 331 1.6 1.6 0.00 0.00 0.00 91 1016.7
20260502090206 13 354 4.8 8.0 0.00 0.00 0.00 91 1016.7
20260502071101 13 87 6.4 9.7 0.00 0.00 0.00 90 1016.0
20260502070559 13 263 4.8 4.8 0.00 0.00 0.00 90 1016.1
20260502070057 13 350 4.8 8.0 0.00 0.00 0.00 91 1016.1
20260502065555 13 320 4.8 4.8 0.00 0.00 0.00 91 1016.2
20260502065052 13 70 3.2 3.2 0.00 0.00 0.00 91 1016.4
20260502064551 13 63 4.8 8.0 0.00 0.00 0.00 91 1016.2
20260502064048 13 36 6.4 12.9 0.00 0.00 0.00 91 1016.3
20260502063545 13 246 4.8 4.8 0.00 0.00 0.00 91 1016.1
20260502063043 13 301 4.8 12.9 0.00 0.00 0.00 91 1016.2
20260502062540 13 244 4.8 4.8 0.00 0.00 0.00 91 1016.0
20260502062038 13 346 4.8 4.8 0.00 0.00 0.00 91 1015.8
20260502061536 13 354 11.3 22.5 0.00 0.00 0.00 92 1016.0
20260502061033 13 35 4.8 12.9 0.00 0.00 0.00 92 1016.0
20260502060528 13 334 3.2 3.2 0.00 0.00 0.00 92 1015.7
20260502060025 14 0 6.4 8.0 0.00 0.00 0.00 92 1016.0
20260502055522 14 318 6.4 14.5 0.00 0.00 0.00 92 1016.0
20260502055021 14 10 3.2 3.2 0.00 0.00 0.00 92 1015.8
20260502054519 13 341 8.0 12.9 0.00 0.00 0.00 92 1015.7
20260502054016 13 51 3.2 4.8 0.00 0.00 0.00 92 1015.7
20260502053513 13 267 3.2 3.2 0.00 0.00 0.00 93 1015.7
20260502053011 13 333 4.8 9.7 0.00 0.00 0.00 93 1015.7
20260502052509 13 349 4.8 8.0 0.00 0.00 0.00 93 1015.4
20260502052007 13 37 3.2 4.8 0.00 0.00 0.00 93 1015.6
20260502051505 13 63 1.6 3.2 0.00 0.00 0.00 92 1015.4
20260502051001 13 84 4.8 8.0 0.00 0.00 0.00 92 1015.3
20260502050457 13 61 9.7 20.9 0.00 0.00 0.00 92 1015.2
20260502045955 13 39 8.0 14.5 0.00 3.07 3.07 92 1015.0
20260502045452 14 100 3.2 3.2 0.00 3.07 3.07 93 1015.3
20260502044949 14 344 8.0 11.3 0.00 3.07 3.07 93 1015.2
20260502044444 14 33 6.4 9.7 0.00 3.07 3.07 93 1015.2
20260502043941 14 83 9.7 16.1 0.00 3.07 3.07 93 1015.0
20260502043439 14 288 8.0 12.9 0.00 3.07 3.07 93 1014.9
20260502042938 14 244 9.7 14.5 0.00 3.07 3.07 94 1014.9
20260502042436 14 64 8.0 20.9 0.00 3.07 3.07 94 1015.2
20260502041933 14 303 4.8 11.3 0.00 3.07 3.07 94 1014.9
20260502041431 14 44 11.3 14.5 0.00 3.07 3.07 94 1015.1
20260502040927 14 9 9.7 11.3 0.00 3.07 3.07 94 1014.8
20260502040424 14 91 11.3 16.1 0.00 3.07 3.07 94 1014.9
20260502035920 14 305 6.4 9.7 0.00 3.07 3.07 95 1015.1
20260502035417 14 39 11.3 16.1 0.00 3.07 3.07 95 1014.9
20260502034915 14 330 3.2 4.8 0.00 3.07 3.07 95 1014.6
20260502034413 15 18 9.7 12.9 0.00 3.07 3.07 95 1014.9
20260502033911 15 190 8.0 14.5 0.00 3.07 3.07 95 1014.7
20260502033409 15 299 8.0 11.3 0.00 3.07 3.07 95 1014.8
20260502032905 15 30 8.0 11.3 0.00 3.07 3.07 96 1014.5
20260502032401 15 61 9.7 12.9 0.00 3.07 3.07 96 1014.5
20260502031859 15 48 6.4 12.9 0.00 3.07 3.07 96 1014.5
20260502031357 15 325 6.4 9.7 0.00 3.07 3.07 96 1014.4
20260502030855 15 335 9.7 17.7 0.00 3.07 3.07 96 1014.3
20260502030353 15 79 6.4 8.0 0.00 3.07 3.07 96 1014.3
20260502025850 15 14 8.0 11.3 0.00 3.07 3.07 96 1014.3
20260502025347 15 324 9.7 11.3 0.00 3.07 3.07 96 1013.9
20260502024845 15 66 4.8 9.7 0.00 3.07 3.07 96 1013.7
20260502024343 15 228 9.7 12.9 0.00 3.07 3.07 96 1013.8
20260502023840 15 3 6.4 9.7 0.00 3.07 3.07 96 1013.6
20260502023338 15 120 8.0 16.1 0.00 3.07 3.07 96 1013.2
20260502022836 15 146 1.6 1.6 0.00 3.07 3.07 97 1013.5
20260502022332 15 269 1.6 3.2 0.00 3.07 3.07 97 1013.2
20260502021829 15 97 4.8 11.3 0.00 3.07 3.07 97 1013.3
20260502021326 15 264 4.8 4.8 0.00 3.07 3.07 97 1013.2
20260502020823 15 29 9.7 16.1 0.00 3.07 3.07 97 1012.8
20260502020321 15 332 8.0 9.7 0.00 3.07 3.07 97 1012.7
20260502015818 15 359 4.8 4.8 0.00 3.07 3.07 97 1012.5
20260502015315 15 69 4.8 12.9 0.00 3.07 3.07 97 1012.4
20260502014812 15 250 3.2 8.0 0.00 3.07 3.07 97 1012.6
20260502014309 15 43 1.6 3.2 0.00 3.07 3.07 97 1012.4
20260502013805 15 292 4.8 9.7 0.00 3.07 3.07 97 1012.2
20260502013301 16 289 4.8 8.0 0.00 3.07 3.07 97 1012.0
20260502012757 16 315 4.8 8.0 0.00 3.07 3.07 97 1011.9
20260502012255 16 342 4.8 8.0 0.00 3.07 3.07 97 1012.1
20260502011752 16 311 6.4 8.0 0.00 3.07 3.07 97 1011.9
20260502011248 16 90 3.2 9.7 0.00 3.07 3.07 97 1011.9
20260502010746 16 9 6.4 8.0 0.13 3.07 3.07 97 1011.9
20260502010242 16 11 8.0 16.1 0.13 3.07 3.07 97 1011.6
20260502005739 16 234 4.8 4.8 0.18 3.05 3.05 97 1011.7
20260502005237 16 9 8.0 12.9 0.18 3.05 3.05 97 1011.1
20260502004733 16 8 4.8 4.8 0.30 3.02 3.02 97 1011.5
20260502004230 16 68 4.8 8.0 0.30 3.02 3.02 97 1012.2
20260502003728 16 2 6.4 9.7 0.00 2.97 2.97 97 1012.1
20260502003225 16 298 4.8 4.8 0.13 2.97 2.97 97 1011.8
20260502002720 16 272 8.0 11.3 0.30 2.97 2.97 96 1011.7
20260502002218 16 281 8.0 9.7 0.30 2.95 2.95 96 1011.8
20260502001715 16 315 8.0 9.7 0.48 2.92 2.92 96 1011.3
20260502001214 16 7 8.0 12.9 0.36 2.90 2.90 96 1011.1
20260502000710 16 204 8.0 11.3 0.13 2.84 2.84 96 1011.3
20260502000211 16 279 4.8 9.7 0.13 2.84 2.84 96 1011.5
20260501235704 16 15 4.8 9.7 0.18 2.82 2.82 96 1011.5
20260501235200 16 332 6.4 8.0 0.30 2.82 2.82 96 1011.5
20260501234656 16 338 6.4 8.0 0.61 2.79 2.79 96 1011.3
20260501234153 16 349 8.0 12.9 0.48 2.77 2.77 96 1010.8
20260501233651 16 352 12.9 17.7 0.30 2.72 2.72 96 1010.7
20260501233148 16 248 8.0 17.7 0.30 2.69 2.69 96 1010.5
20260501232644 16 3 8.0 11.3 0.48 2.67 2.67 96 1010.8
20260501232142 16 38 6.4 14.5 0.79 2.64 2.64 96 1010.5
20260501231639 17 350 9.7 12.9 1.37 2.59 2.59 96 1010.7
20260501231137 17 331 11.3 20.9 3.00 2.51 2.51 96 1010.8
20260501230635 17 308 4.8 8.0 3.53 2.39 2.39 96 1010.4
20260501230133 17 314 9.7 12.9 1.37 2.03 2.03 96 1010.6
20260501225631 17 314 14.5 17.7 0.00 1.80 1.80 96 1010.8
20260501225127 17 335 6.4 9.7 0.00 1.80 1.80 96 1009.7
20260501224624 17 52 11.3 16.1 0.00 1.80 1.80 96 1007.8
20260501224121 17 62 6.4 8.0 0.00 1.80 1.80 96 1007.9
20260501223617 17 51 6.4 9.7 0.00 1.80 1.80 96 1007.3
20260501223114 17 81 3.2 8.0 0.13 1.80 1.80 96 1007.7
20260501222610 17 82 11.3 14.5 0.13 1.80 1.80 96 1008.6
20260501222107 17 328 9.7 11.3 0.18 1.78 1.78 96 1008.5
20260501221604 17 59 4.8 4.8 0.18 1.78 1.78 96 1008.2
20260501221101 17 66 9.7 12.9 0.00 1.75 1.75 96 1008.6
20260501220559 17 81 9.7 11.3 0.00 1.75 1.75 96 1009.2
20260501220055 17 27 6.4 9.7 0.13 1.75 1.75 95 1009.0
20260501215552 17 2 4.8 4.8 0.13 1.75 1.75 96 1008.9
20260501215047 17 58 3.2 3.2 0.18 1.73 1.73 96 1008.7
20260501214543 17 46 9.7 14.5 0.18 1.73 1.73 95 1008.9
20260501214038 17 59 6.4 9.7 0.13 1.70 1.70 95 1008.7
20260501213536 17 72 6.4 11.3 0.61 1.70 1.70 95 1009.1
20260501213032 17 65 8.0 11.3 0.48 1.68 1.68 95 1009.2
20260501212528 17 98 3.2 4.8 0.00 1.60 1.60 95 1009.3
20260501212026 17 84 6.4 9.7 0.00 1.60 1.60 95 1009.2
20260501211522 17 56 6.4 9.7 0.00 1.60 1.60 95 1008.9
20260501211020 18 83 12.9 17.7 0.00 1.60 1.60 95 1008.8
20260501210516 18 98 12.9 20.9 0.00 1.60 1.60 96 1008.9
20260501210013 18 344 6.4 9.7 0.00 1.60 1.60 96 1009.1
20260501205510 18 74 6.4 8.0 0.00 1.60 1.60 96 1008.8
20260501205008 18 332 4.8 9.7 0.00 1.60 1.60 96 1008.9
20260501204503 18 31 8.0 11.3 0.00 1.60 1.60 96 1009.1
20260501203959 18 261 4.8 8.0 0.00 1.60 1.60 96 1009.1
20260501203456 18 61 4.8 8.0 0.00 1.60 1.60 96 1009.0
20260501202954 18 60 3.2 4.8 0.00 1.60 1.60 96 1009.3
20260501202450 18 308 1.6 1.6 0.00 1.60 1.60 96 1009.8
20260501201947 17 254 3.2 4.8 0.18 1.60 1.60 96 1010.0
20260501201444 18 29 11.3 16.1 0.18 1.60 1.60 96 1009.5
20260501200941 18 103 1.6 1.6 0.30 1.57 1.57 96 1009.3
20260501200438 18 32 6.4 9.7 0.61 1.57 1.57 96 1009.3
20260501195935 18 300 3.2 4.8 1.07 1.55 1.55 96 1009.3
20260501195432 18 289 1.6 1.6 2.16 1.50 1.50 96 1008.2
20260501194927 18 69 4.8 4.8 3.84 1.35 1.35 95 1007.4
20260501194423 18 210 1.6 1.6 2.46 1.02 1.02 95 1009.9
20260501193919 18 325 4.8 4.8 0.97 0.69 0.69 95 1009.8
20260501193418 18 314 4.8 3.2 0.43 0.58 0.58 95 1008.4
20260501192915 18 34 14.5 16.1 0.13 0.53 0.53 95 1007.2
20260501192413 18 82 9.7 12.9 0.00 0.51 0.51 95 1006.5
20260501191910 18 4 11.3 14.5 0.00 0.51 0.51 95 1005.4
20260501191407 18 46 8.0 9.7 0.00 0.51 0.51 95 1006.0
20260501190904 18 64 6.4 9.7 0.00 0.51 0.51 95 1007.2
20260501190400 18 69 4.8 8.0 0.00 0.51 0.51 95 1007.0
20260501185854 18 71 4.8 8.0 0.00 0.51 0.51 95 1007.2
20260501185351 18 15 4.8 8.0 0.00 0.51 0.51 95 1007.3
20260501184847 18 72 4.8 8.0 0.00 0.51 0.51 95 1007.2
20260501184343 18 53 6.4 8.0 0.00 0.51 0.51 95 1008.1
20260501183838 18 93 4.8 9.7 0.00 0.51 0.51 96 1008.5
20260501183337 18 50 1.6 1.6 0.00 0.51 0.51 95 1008.8
20260501182832 17 16 8.0 11.3 0.00 0.51 0.51 95 1009.0
20260501182329 17 45 1.6 3.2 0.18 0.51 0.51 95 1008.7
20260501181826 17 126 3.2 3.2 0.30 0.51 0.51 95 1009.0
20260501181323 17 81 6.4 9.7 0.30 0.48 0.48 95 1009.3
20260501180821 17 199 1.6 1.6 0.18 0.46 0.46 95 1009.6
20260501180316 17 284 3.2 4.8 0.13 0.43 0.43 95 1010.1
20260501175814 17 67 4.8 9.7 0.43 0.43 0.43 95 1009.4
20260501175310 17 72 9.7 12.9 0.66 0.41 0.41 95 1009.0
20260501174807 17 46 6.4 9.7 0.48 0.36 0.36 95 1009.2
20260501174304 17 52 4.8 9.7 0.48 0.33 0.33 95 1009.0
20260501173803 17 76 4.8 4.8 0.18 0.28 0.28 95 1008.7
20260501173300 17 86 4.8 4.8 0.13 0.25 0.25 95 1008.9
20260501172755 17 21 4.8 8.0 0.61 0.25 0.25 95 1009.1
20260501172250 18 68 8.0 11.3 0.79 0.23 0.23 95 1009.2
20260501171746 18 87 3.2 8.0 0.43 0.15 0.15 95 1008.9
20260501171243 18 53 3.2 4.8 0.13 0.10 0.10 94 1009.4
20260501170740 18 20 4.8 8.0 0.00 0.08 0.08 94 1009.6
20260501170237 18 70 11.3 17.7 0.00 0.08 0.08 94 1009.5
20260501165734 18 47 4.8 11.3 0.00 0.08 0.08 94 1009.5
20260501165232 18 62 4.8 9.7 0.18 0.08 0.08 94 1010.2
20260501164730 18 77 11.3 22.5 0.18 0.08 0.08 93 1010.3
20260501164226 18 59 4.8 9.7 0.00 0.05 0.05 93 1010.4
20260501163723 18 33 4.8 4.8 0.00 0.05 0.05 93 1010.1
20260501163220 18 53 6.4 8.0 0.18 0.05 0.05 92 1009.8
20260501162716 18 42 9.7 12.9 0.18 0.05 0.05 92 1010.2
20260501162212 18 40 8.0 12.9 0.13 0.03 0.03 92 1010.5
20260501161710 18 315 8.0 12.9 0.13 0.03 0.03 91 1010.5
20260501161207 18 177 6.4 11.3 0.00 0.00 0.00 91 1010.6
20260501160703 18 8 6.4 11.3 0.00 0.00 0.00 90 1010.7
20260501160200 18 75 8.0 11.3 0.00 0.00 0.00 90 1010.7
20260501155657 18 358 4.8 8.0 0.00 0.00 0.00 90 1010.8
20260501155154 18 98 3.2 4.8 0.00 0.00 0.00 90 1010.7
20260501154651 18 323 9.7 14.5 0.00 0.00 0.00 90 1011.1
20260501154148 19 324 6.4 11.3 0.00 0.00 0.00 89 1011.0
20260501153646 19 19 8.0 9.7 0.00 0.00 0.00 89 1011.3
20260501153143 19 348 4.8 8.0 0.00 0.00 0.00 89 1010.9
20260501152639 19 358 4.8 9.7 0.00 0.00 0.00 90 1010.4
20260501152136 20 72 3.2 3.2 0.00 0.00 0.00 90 1010.1
20260501151633 20 41 8.0 14.5 0.00 0.00 0.00 90 1009.9
20260501151130 20 35 6.4 11.3 0.00 0.00 0.00 90 1009.6
20260501150626 20 67 3.2 4.8 0.00 0.00 0.00 90 1009.8
20260501150122 19 37 3.2 3.2 0.00 0.00 0.00 90 1009.5
20260501145618 19 85 6.4 8.0 0.00 0.00 0.00 90 1009.7
20260501145116 19 37 12.9 16.1 0.00 0.00 0.00 90 1009.9
20260501144613 19 54 8.0 11.3 0.00 0.00 0.00 90 1009.5
20260501144113 19 67 6.4 9.7 0.00 0.00 0.00 90 1009.6
20260501143609 19 86 4.8 11.3 0.00 0.00 0.00 91 1010.0